Retour au catalogue

COSMOS 970 DEB

ActifLEO
NORAD 65003·DEBRIS·🇷🇺 Russia

Lancé Dec 21, 1977 depuis Baikonur Cosmodrome

Loading…

Prochains Passages (prochaines 24 heures)

TLE

PériméSource: Space-Track

Époque: Sep 2, 2026, 19:44 UTC

1 65003U 77121DQ  26245.82237405  .00000142  00000-0  21253-3 0  9995
2 65003  65.8425 317.8841 0108599  40.3819 320.5243 13.77990787190507

Suivez COSMOS 970 DEB en temps réel avec AllMySat

Download on the App Store